| time (UTC) | temp C | wind direction | speed KPH | gust KPH | rain 1hr cm | rain 24hr cm | rain mn cm | humidity % | barometer mb |
| 20260906051508 | 25 | 210 | 0.0 | 0.0 | 0.00 | 0.00 | 0.00 | 83 | 1010.8 |
| 20260906050006 | 25 | 210 | 0.0 | 0.0 | 0.00 | 0.00 | 0.00 | 83 | 1010.8 |
| 20260906044505 | 26 | 210 | 0.0 | 0.0 | 0.00 | 0.00 | 0.00 | 83 | 1010.8 |
| 20260906043005 | 26 | 210 | 0.0 | 0.0 | 0.00 | 0.00 | 0.00 | 83 | 1010.9 |
| 20260906041504 | 26 | 210 | 0.0 | 0.0 | 0.00 | 0.00 | 0.00 | 82 | 1011.0 |
| 20260906040004 | 26 | 210 | 0.0 | 0.0 | 0.00 | 0.00 | 0.00 | 82 | 1010.9 |
| 20260906034503 | 26 | 210 | 0.0 | 0.0 | 0.00 | 0.00 | 0.00 | 81 | 1010.8 |
| 20260906033002 | 26 | 210 | 0.0 | 0.0 | 0.00 | 0.00 | 0.00 | 80 | 1010.9 |
| 20260906031502 | 27 | 210 | 0.0 | 0.0 | 0.00 | 0.00 | 0.00 | 79 | 1011.1 |
| 20260906030002 | 27 | 210 | 0.0 | 0.0 | 0.00 | 0.00 | 0.00 | 78 | 1011.1 |
| 20260906024603 | 27 | 210 | 0.0 | 0.0 | 0.00 | 0.00 | 0.00 | 77 | 1011.0 |
| 20260906023102 | 28 | 210 | 1.6 | 6.4 | 0.00 | 0.00 | 0.00 | 77 | 1011.0 |
| 20260906021606 | 28 | 209 | 3.2 | 4.8 | 0.00 | 0.00 | 0.00 | 75 | 1010.6 |
| 20260906014601 | 30 | 210 | 0.0 | 9.7 | 0.00 | 0.00 | 0.00 | 71 | 1010.1 |
| 20260906013058 | 30 | 114 | 0.0 | 0.0 | 0.00 | 0.00 | 0.00 | 68 | 1009.9 |
| 20260906011602 | 31 | 114 | 0.0 | 0.0 | 0.00 | 0.00 | 0.00 | 64 | 1009.9 |
| 20260906010106 | 32 | 114 | 0.0 | 0.0 | 0.00 | 0.00 | 0.00 | 61 | 1009.5 |
| 20260906004600 | 34 | 114 | 0.0 | 1.6 | 0.00 | 0.00 | 0.00 | 57 | 1009.6 |
| 20260906003059 | 35 | 114 | 1.6 | 4.8 | 0.00 | 0.00 | 0.00 | 52 | 1009.5 |
| 20260906001605 | 36 | 114 | 0.0 | 3.2 | 0.00 | 0.00 | 0.00 | 48 | 1009.7 |
| 20260906000050 | 37 | 114 | 1.6 | 4.8 | 0.00 | 0.00 | 0.00 | 47 | 1009.7 |
| 20260905234549 | 37 | 114 | 0.0 | 0.0 | 0.00 | 0.00 | 0.00 | 47 | 1009.7 |
| 20260905233050 | 38 | 114 | 1.6 | 4.8 | 0.00 | 0.00 | 0.00 | 45 | 1009.7 |
| 20260905231547 | 38 | 119 | 1.6 | 9.7 | 0.00 | 0.00 | 0.00 | 44 | 1009.7 |
| 20260905230052 | 40 | 111 | 8.0 | 12.9 | 0.00 | 0.00 | 0.00 | 42 | 1009.7 |
| 20260905224556 | 40 | 238 | 0.0 | 0.0 | 0.00 | 0.00 | 0.00 | 44 | 1009.7 |
| 20260905223046 | 39 | 238 | 0.0 | 4.8 | 0.00 | 0.00 | 0.00 | 43 | 1009.7 |
| 20260905221547 | 39 | 238 | 0.0 | 6.4 | 0.00 | 0.00 | 0.00 | 44 | 1009.6 |
| 20260905220043 | 39 | 185 | 1.6 | 4.8 | 0.00 | 0.00 | 0.00 | 42 | 1009.7 |
| 20260905214541 | 39 | 89 | 0.0 | 11.3 | 0.00 | 0.00 | 0.00 | 43 | 1009.7 |
| 20260905213041 | 40 | 157 | 3.2 | 9.7 | 0.00 | 0.00 | 0.00 | 42 | 1009.7 |
| 20260905211545 | 40 | 290 | 0.0 | 0.0 | 0.00 | 0.00 | 0.00 | 40 | 1009.7 |
| 20260905210053 | 40 | 290 | 0.0 | 4.8 | 0.00 | 0.00 | 0.00 | 40 | 1010.0 |
| 20260905204533 | 40 | 285 | 0.0 | 8.0 | 0.00 | 0.00 | 0.00 | 39 | 1010.3 |
| 20260905203033 | 40 | 342 | 0.0 | 6.4 | 0.00 | 0.00 | 0.00 | 42 | 1010.7 |
| 20260905201527 | 39 | 10 | 1.6 | 12.9 | 0.00 | 0.00 | 0.00 | 40 | 1010.9 |
| 20260905200030 | 39 | 40 | 0.0 | 6.4 | 0.00 | 0.00 | 0.00 | 44 | 1011.0 |
| 20260905194520 | 38 | 64 | 0.0 | 6.4 | 0.00 | 0.00 | 0.00 | 43 | 1011.3 |
| 20260905193017 | 38 | 65 | 1.6 | 8.0 | 0.00 | 0.00 | 0.00 | 44 | 1011.4 |
| 20260905191514 | 38 | 31 | 1.6 | 8.0 | 0.00 | 0.00 | 0.00 | 44 | 1011.7 |
| 20260905190011 | 38 | 292 | 1.6 | 4.8 | 0.00 | 0.00 | 0.00 | 45 | 1012.0 |
| 20260905184509 | 38 | 267 | 3.2 | 6.4 | 0.00 | 0.00 | 0.00 | 46 | 1012.2 |
| 20260905183007 | 38 | 292 | 0.0 | 8.0 | 0.00 | 0.00 | 0.00 | 48 | 1012.2 |
| 20260905181503 | 38 | 284 | 3.2 | 9.7 | 0.00 | 0.00 | 0.00 | 47 | 1012.2 |
| 20260905174602 | 37 | 285 | 1.6 | 6.4 | 0.00 | 0.00 | 0.00 | 51 | 1012.4 |
| 20260905173055 | 37 | 344 | 0.0 | 8.0 | 0.00 | 0.00 | 0.00 | 53 | 1012.6 |
| 20260905171604 | 37 | 324 | 1.6 | 6.4 | 0.00 | 0.00 | 0.00 | 54 | 1012.8 |
| 20260905170056 | 37 | 324 | 3.2 | 8.0 | 0.00 | 0.00 | 0.00 | 54 | 1012.9 |
| 20260905164548 | 36 | 311 | 1.6 | 6.4 | 0.00 | 0.00 | 0.00 | 56 | 1013.2 |
| 20260905163046 | 36 | 329 | 0.0 | 6.4 | 0.00 | 0.00 | 0.00 | 58 | 1013.5 |
| 20260905161544 | 35 | 298 | 0.0 | 6.4 | 0.00 | 0.00 | 0.00 | 59 | 1013.6 |
| 20260905160047 | 35 | 247 | 0.0 | 6.4 | 0.00 | 0.00 | 0.00 | 62 | 1013.5 |
| 20260905154550 | 33 | 340 | 0.0 | 8.0 | 0.00 | 0.00 | 0.00 | 64 | 1013.6 |
| 20260905153033 | 33 | 298 | 0.0 | 6.4 | 0.00 | 0.00 | 0.00 | 67 | 1013.6 |
| 20260905151530 | 33 | 257 | 0.0 | 4.8 | 0.00 | 0.00 | 0.00 | 70 | 1013.6 |
| 20260905150025 | 31 | 257 | 0.0 | 4.8 | 0.00 | 0.00 | 0.00 | 75 | 1013.6 |
| 20260905144534 | 30 | 257 | 0.0 | 3.2 | 0.00 | 0.00 | 0.00 | 77 | 1013.7 |
| 20260905143017 | 29 | 257 | 0.0 | 3.2 | 0.00 | 0.00 | 0.00 | 82 | 1013.7 |
| 20260905141512 | 28 | 257 | 0.0 | 4.8 | 0.00 | 0.00 | 0.00 | 84 | 1013.7 |
| 20260905140009 | 27 | 257 | 0.0 | 0.0 | 0.00 | 0.00 | 0.00 | 87 | 1013.5 |
| 20260905134507 | 26 | 257 | 0.0 | 1.6 | 0.00 | 0.00 | 0.00 | 91 | 1013.6 |
| 20260905133002 | 26 | 257 | 1.6 | 4.8 | 0.00 | 0.00 | 0.00 | 93 | 1013.5 |
| 20260905131602 | 25 | 252 | 3.2 | 6.4 | 0.00 | 0.00 | 0.00 | 97 | 1013.4 |
| 20260905130057 | 23 | 217 | 0.0 | 0.0 | 0.00 | 0.00 | 0.00 | 98 | 1013.3 |
| 20260905124555 | 23 | 217 | 0.0 | 0.0 | 0.00 | 0.00 | 0.00 | 97 | 1013.2 |
| 20260905123053 | 22 | 217 | 0.0 | 0.0 | 0.00 | 0.00 | 0.00 | 96 | 1013.1 |
| 20260905121552 | 22 | 217 | 0.0 | 3.2 | 0.00 | 0.00 | 0.00 | 95 | 1013.1 |
| 20260905120050 | 22 | 217 | 0.0 | 3.2 | 0.00 | 0.00 | 0.00 | 95 | 1012.9 |
| 20260905114606 | 22 | 217 | 0.0 | 0.0 | 0.00 | 0.00 | 0.00 | 94 | 1012.9 |
| 20260905113048 | 22 | 217 | 0.0 | 0.0 | 0.00 | 0.00 | 0.00 | 94 | 1012.9 |
| 20260905111550 | 22 | 217 | 0.0 | 0.0 | 0.00 | 0.00 | 0.00 | 94 | 1012.8 |
| 20260905110046 | 22 | 217 | 0.0 | 0.0 | 0.00 | 0.00 | 0.00 | 94 | 1012.8 |
| 20260905104550 | 22 | 217 | 0.0 | 0.0 | 0.00 | 0.00 | 0.00 | 94 | 1012.6 |
| 20260905103047 | 22 | 217 | 0.0 | 0.0 | 0.00 | 0.00 | 0.00 | 94 | 1012.6 |
| 20260905101543 | 22 | 217 | 0.0 | 0.0 | 0.00 | 0.00 | 0.00 | 93 | 1012.7 |
| 20260905100042 | 22 | 217 | 0.0 | 0.0 | 0.00 | 0.00 | 0.00 | 93 | 1012.5 |
| 20260905094557 | 22 | 217 | 0.0 | 0.0 | 0.00 | 0.00 | 0.00 | 93 | 1012.5 |
| 20260905093044 | 22 | 217 | 0.0 | 0.0 | 0.00 | 0.00 | 0.00 | 93 | 1012.5 |
| 20260905091542 | 22 | 217 | 0.0 | 0.0 | 0.00 | 0.00 | 0.00 | 92 | 1012.4 |
| 20260905090038 | 23 | 217 | 0.0 | 3.2 | 0.00 | 0.00 | 0.00 | 93 | 1012.5 |
| 20260905084542 | 23 | 217 | 1.6 | 3.2 | 0.00 | 0.00 | 0.00 | 93 | 1012.4 |
| 20260905083035 | 23 | 217 | 0.0 | 6.4 | 0.00 | 0.00 | 0.00 | 92 | 1012.3 |
| 20260905081534 | 23 | 217 | 0.0 | 0.0 | 0.00 | 0.00 | 0.00 | 92 | 1012.3 |
| 20260905080048 | 23 | 217 | 0.0 | 0.0 | 0.00 | 0.00 | 0.00 | 92 | 1012.5 |
| 20260905074531 | 23 | 217 | 0.0 | 0.0 | 0.00 | 0.00 | 0.00 | 92 | 1012.3 |
| 20260905073040 | 23 | 217 | 0.0 | 0.0 | 0.00 | 0.00 | 0.00 | 91 | 1012.4 |
| 20260905071529 | 23 | 217 | 0.0 | 0.0 | 0.00 | 0.00 | 0.00 | 91 | 1012.3 |
| 20260905070033 | 23 | 217 | 0.0 | 0.0 | 0.00 | 0.00 | 0.00 | 92 | 1012.2 |
| 20260905064527 | 24 | 217 | 0.0 | 0.0 | 0.00 | 0.00 | 0.00 | 91 | 1012.3 |
| 20260905063026 | 24 | 217 | 0.0 | 0.0 | 0.00 | 0.00 | 0.00 | 91 | 1012.4 |
| 20260905061536 | 24 | 217 | 0.0 | 0.0 | 0.00 | 0.00 | 0.00 | 91 | 1012.3 |
| 20260905060023 | 24 | 217 | 0.0 | 0.0 | 0.00 | 0.00 | 0.00 | 91 | 1012.3 |
| 20260905054520 | 24 | 217 | 0.0 | 0.0 | 0.00 | 0.00 | 0.00 | 90 | 1012.4 |
| 20260905053021 | 25 | 217 | 0.0 | 0.0 | 0.00 | 0.00 | 0.00 | 90 | 1012.4 |